Theta_e
290 291 292 292 291 290 289 289 289 287 288 286 286 286 289 288 283 282 287 288 286 288 288 289 291 291 291 291 292 292 295 297 297 297 296 296 296 297 297 297 296 295 294 293 293 292 292 291 291 291 291 291 291 290 290 289 288 289 289 290 290 290 289 289 288 287 288 288 288 287 286 286 285 285 285 284 284 284 284 285 287 285 286 286 287 288 288
289 290 290 292 290 289 289 289 289 289 289 288 288 288 290 289 287 289 290 288 289 291 290 292 292 293 292 291 292 293 296 297 297 296 296 296 296 296 297 297 296 295 295 293 292 292 291 291 291 291 290 290 290 289 289 288 288 288 289 289 289 289 288 288 287 286 287 286 286 285 285 285 285 284 284 284 284 284 285 285 285 286 286 286 286 287 287
284 289 289 290 291 289 287 288 290 290 290 289 289 289 290 289 288 290 290 288 288 292 294 293 294 294 293 292 291 292 295 296 296 296 295 296 296 296 297 296 296 295 294 293 292 291 291 291 290 291 290 290 289 289 288 287 288 287 287 287 287 287 287 286 286 285 285 286 285 285 285 284 284 284 285 285 285 285 285 285 285 285 285 286 286 286 286
282 286 284 285 284 284 284 286 288 289 288 286 288 286 289 287 285 287 286 286 287 293 294 293 293 291 293 292 291 291 294 296 296 296 295 295 296 296 297 297 296 294 293 292 292 291 290 290 290 290 289 289 288 288 287 286 286 286 285 286 286 286 285 285 285 285 285 284 284 284 284 284 284 284 284 284 284 284 284 284 285 284 284 284 284 285 285
280 284 284 283 282 282 281 282 287 291 291 291 291 291 291 290 291 287 284 286 292 292 293 293 290 291 292 292 293 293 294 296 296 296 296 296 296 297 297 296 295 294 293 292 291 290 290 290 290 289 289 288 287 287 287 285 285 286 285 285 285 285 284 284 283 284 283 284 283 283 283 283 283 283 283 283 283 283 283 283 282 283 283 283 283 284 284
282 280 283 283 282 277 279 290 291 293 291 290 288 288 290 292 292 290 292 292 293 292 293 292 291 290 292 294 295 296 296 295 295 295 296 296 296 297 297 296 294 293 292 291 290 290 289 289 288 288 287 287 287 286 286 285 286 286 285 285 285 284 284 283 283 283 283 283 283 282 282 282 282 282 282 282 281 282 282 282 281 282 281 282 282 282 283
282 281 283 280 277 279 290 293 294 294 294 293 292 292 293 293 293 293 292 292 293 292 293 293 294 293 294 293 295 294 292 295 295 295 295 295 295 296 295 294 293 292 291 290 289 288 288 288 287 287 287 286 286 285 285 285 285 286 285 284 284 284 283 282 282 282 282 282 282 281 281 281 281 281 280 280 280 281 281 280 281 282 282 282 282 282 282
283 279 280 276 278 287 291 292 293 294 292 293 290 290 293 293 293 293 292 294 294 295 293 293 293 293 292 292 291 293 294 295 295 294 295 296 295 295 295 294 293 291 290 289 288 287 288 288 287 286 287 286 285 285 285 285 285 284 284 284 283 282 282 281 281 281 281 281 280 280 280 280 279 279 279 279 279 280 280 280 279 280 280 279 281 281 281
282 280 280 281 286 285 285 287 287 291 289 288 288 285 288 293 295 294 294 294 295 294 294 292 288 288 289 290 291 290 292 294 295 296 296 297 297 296 294 293 291 290 289 288 287 287 287 286 286 286 286 286 285 285 285 284 284 283 283 282 281 281 281 281 281 280 280 280 279 279 278 278 277 277 278 278 278 279 279 279 279 280 280 280 281 281 281
286 281 278 279 278 277 283 290 291 293 294 294 294 288 287 293 294 295 295 294 294 293 291 289 287 288 289 287 290 291 290 293 295 294 294 294 294 293 291 290 289 288 287 287 287 286 285 285 285 285 285 285 284 284 284 283 283 282 281 281 280 280 280 280 280 279 279 278 277 277 275 275 276 276 277 277 277 279 278 279 279 279 280 281 281 280 281
283 281 279 278 277 280 287 288 291 293 294 294 291 287 284 292 293 294 295 294 294 292 291 288 287 289 286 288 292 292 291 291 292 292 291 291 291 291 290 289 288 286 286 286 285 284 284 283 283 283 284 284 284 283 282 281 281 280 279 279 279 279 279 279 279 279 278 277 276 275 275 275 275 275 275 276 278 278 278 277 278 279 280 280 280 279 278
282 282 279 278 280 282 285 290 288 292 293 294 290 279 280 289 291 293 293 293 293 291 292 290 290 290 287 289 291 290 290 290 289 291 290 289 289 288 287 287 287 286 285 284 283 282 282 281 281 282 282 283 282 281 280 279 279 278 278 278 279 279 279 280 280 279 277 275 274 274 273 273 274 274 275 276 276 276 276 277 277 278 278 278 278 279 279
284 284 280 281 283 286 288 289 288 289 294 291 283 278 283 288 290 291 293 293 294 294 290 290 289 291 291 289 288 286 288 288 287 287 287 287 287 287 286 285 286 284 284 283 282 280 280 280 280 281 282 282 281 280 279 278 276 277 277 278 279 279 279 279 278 276 275 274 273 273 272 273 274 274 274 274 275 274 275 276 275 276 276 277 278 278 280
282 283 280 281 283 285 289 286 289 292 289 280 280 286 287 288 289 290 290 292 291 290 290 289 292 289 285 287 286 287 286 287 286 286 286 285 284 284 285 285 284 282 281 279 278 277 277 278 278 280 281 281 279 278 277 275 276 277 278 278 278 278 278 277 275 273 273 273 273 273 273 273 271 272 272 272 273 274 273 274 275 275 275 277 277 278 279
282 281 279 279 277 284 291 291 289 289 285 284 288 287 287 287 288 289 290 289 290 289 290 290 288 285 286 286 286 285 285 286 285 284 284 284 284 283 283 282 281 281 279 278 276 276 276 276 276 277 279 279 277 276 275 276 277 278 278 277 276 276 275 274 273 272 272 272 272 272 271 272 270 271 272 272 272 273 274 274 274 274 275 276 276 277 277
280 280 278 279 283 286 291 293 287 287 289 291 288 287 289 288 287 289 289 289 288 289 289 288 286 286 286 285 285 285 284 284 284 283 283 283 283 282 281 281 280 280 278 276 275 275 274 274 274 275 278 277 276 275 275 277 277 277 274 273 272 272 272 271 271 271 272 271 271 271 271 271 271 271 271 271 270 272 273 273 273 274 274 275 275 275 275
284 282 285 285 285 289 288 288 289 291 291 289 288 288 288 287 288 289 288 290 288 288 288 288 287 285 285 285 285 284 284 283 283 282 282 282 282 281 281 280 280 278 277 275 274 273 273 273 273 274 276 276 275 274 275 276 274 272 271 271 271 270 270 270 270 270 269 270 271 270 270 270 271 271 271 271 271 272 272 272 272 272 273 274 273 274 274
288 288 288 286 287 289 289 288 286 287 287 287 287 287 288 289 287 287 288 288 287 287 288 288 286 286 286 285 284 284 283 283 282 281 280 279 279 279 279 279 278 277 276 274 273 272 271 272 272 272 273 273 272 273 273 272 271 270 269 268 269 269 269 269 269 268 269 269 270 270 269 270 270 269 270 271 270 271 270 270 270 271 271 272 272 272 273
288 285 289 287 287 287 288 289 287 286 284 287 286 287 288 288 286 286 286 287 287 287 287 288 287 286 286 285 284 284 283 282 281 280 279 279 279 279 278 278 277 276 274 273 272 271 270 271 271 272 272 273 272 272 270 270 270 269 269 270 270 269 268 269 268 268 269 270 269 269 267 267 268 268 269 268 268 269 269 269 269 270 270 271 271 271 272
287 287 284 285 284 286 286 286 288 289 288 286 285 285 285 286 285 285 286 286 287 286 286 286 287 286 286 285 284 283 283 282 280 279 279 278 277 277 277 277 276 276 275 274 272 271 270 270 271 272 271 270 270 269 269 269 268 268 268 268 267 266 267 267 269 268 268 271 269 267 268 268 268 268 267 267 267 268 268 268 269 269 270 270 270 271 271
287 285 284 284 285 288 286 285 285 286 288 286 285 285 285 284 285 285 286 285 287 286 286 286 287 286 285 285 284 283 282 281 280 279 278 277 276 275 274 274 274 274 274 273 271 270 269 270 270 271 269 268 267 267 268 268 267 266 266 267 267 265 267 268 267 269 267 265 266 266 266 267 266 267 268 267 268 267 268 268 267 269 270 271 272 272 272
286 286 285 285 285 285 286 286 285 287 288 287 286 286 286 286 285 285 284 284 284 286 285 287 287 286 285 284 284 283 282 281 279 278 276 275 273 272 271 271 271 270 270 270 269 268 268 269 269 269 267 267 266 266 266 266 265 264 265 266 265 265 267 266 265 265 264 264 264 265 265 265 266 265 272 273 272 270 268 274 276 277 276 273 273 273 273
286 286 286 287 288 285 285 286 285 287 288 287 286 286 286 286 285 284 283 284 286 286 286 286 287 286 286 284 284 283 282 280 279 277 275 274 272 270 270 269 268 268 268 268 267 267 267 268 269 267 266 265 264 264 264 265 265 265 266 265 265 266 266 263 265 264 264 264 264 263 265 265 265 266 265 266 271 273 274 274 274 275 275 276 277 277 275
285 287 287 286 286 286 286 285 284 285 286 286 286 287 286 285 284 283 283 283 284 284 285 286 285 286 285 285 284 282 280 278 277 275 274 273 272 270 269 269 268 267 267 267 266 266 267 268 267 265 264 263 263 262 263 264 265 264 263 264 263 263 263 262 264 265 264 264 263 264 264 264 264 264 263 263 264 269 272 271 272 273 274 275 275 275 276
285 286 284 284 284 284 284 284 284 284 284 285 285 283 284 284 284 284 284 284 283 283 282 283 283 284 285 284 283 281 279 277 276 275 273 272 271 269 269 267 266 266 266 266 266 266 266 266 265 264 263 262 262 262 263 263 263 261 261 261 260 259 261 263 263 264 264 263 263 263 262 262 262 262 262 262 262 262 265 269 270 271 272 273 273 273 274
284 282 282 282 282 283 284 283 284 284 284 284 283 282 281 282 282 280 278 278 280 281 283 281 281 282 284 283 281 278 276 275 274 273 271 270 269 268 267 266 266 267 266 266 265 265 265 264 263 262 261 261 261 261 261 260 259 258 258 258 258 259 261 261 261 261 261 261 261 261 261 261 260 261 261 262 261 262 262 263 265 267 270 270 271 272 272
282 283 282 283 283 282 282 283 282 283 282 280 279 278 277 277 277 276 274 274 274 275 278 281 280 279 279 279 278 276 276 272 271 271 270 269 268 267 267 266 266 266 265 265 264 264 263 263 262 261 260 260 260 260 259 258 258 257 257 259 257 261 264 264 261 260 261 261 260 260 260 259 259 260 260 261 262 262 262 262 262 262 263 265 268 270 269
282 282 283 283 282 282 280 281 282 281 280 280 278 277 276 276 276 275 274 275 273 273 274 275 277 277 277 274 275 272 271 271 271 270 269 268 267 266 265 265 265 264 264 263 263 263 262 261 260 260 259 260 260 258 257 257 256 256 257 258 258 259 260 261 260 260 259 259 260 259 259 258 259 260 261 261 261 262 262 262 262 262 262 263 264 267 269
282 281 280 281 281 281 280 281 280 278 276 276 276 276 275 275 274 274 274 274 273 273 274 273 273 275 275 274 274 273 272 271 271 270 269 268 265 264 264 263 263 263 263 262 261 261 260 260 259 259 259 260 258 258 256 256 256 256 257 258 258 258 260 259 258 259 259 258 258 259 262 261 261 259 260 260 261 261 261 261 262 262 262 262 263 264 266
281 280 280 278 278 278 279 278 278 277 276 275 275 274 275 276 275 274 275 273 272 274 273 271 271 271 271 272 272 272 272 272 272 270 267 265 264 263 263 263 262 261 261 260 260 260 259 259 259 258 259 259 259 257 256 255 255 255 256 257 257 257 256 257 257 257 257 257 258 262 260 260 259 260 259 259 260 260 261 261 262 262 261 261 263 262 262
278 278 277 276 276 276 277 278 277 275 275 273 274 274 274 275 275 276 277 275 273 274 272 272 272 271 270 272 272 270 269 268 267 266 265 264 262 262 262 262 262 262 261 260 260 259 258 259 258 259 260 258 259 258 256 255 255 256 257 258 257 261 262 263 262 257 256 258 259 259 258 260 259 260 260 260 259 259 259 260 260 260 261 261 261 262 262
276 275 275 275 275 275 275 274 276 276 276 274 273 274 275 275 276 277 277 275 275 274 272 270 270 272 272 270 268 266 265 264 264 263 262 261 261 261 261 261 260 262 261 260 259 259 259 259 259 260 260 259 259 257 256 256 257 256 257 259 257 257 260 262 260 260 260 260 259 258 259 258 257 258 259 259 258 259 259 259 260 260 261 261 261 261 262
277 276 276 275 274 273 273 273 275 276 275 275 276 278 277 276 277 278 278 277 273 272 272 272 272 272 269 267 266 265 264 262 261 261 260 260 260 260 260 259 257 259 260 260 260 260 260 260 260 261 259 259 258 257 257 256 255 256 256 257 256 257 260 261 261 259 259 259 258 258 257 258 258 257 257 259 259 260 259 260 260 260 261 261 261 261 263
281 281 282 281 281 281 280 279 276 276 276 276 277 276 275 275 276 277 277 273 273 272 272 273 271 269 265 265 264 263 262 262 261 262 261 260 260 259 259 259 259 259 259 260 260 261 261 261 261 260 259 259 259 258 258 256 256 255 255 255 255 257 257 258 260 258 258 258 258 261 259 259 258 258 258 259 259 259 260 260 260 261 260 260 261 261 263
282 282 282 282 281 281 282 282 280 278 277 277 276 276 277 277 275 276 276 273 273 276 273 270 267 266 264 263 263 262 262 265 266 265 262 261 259 259 259 259 259 258 258 259 260 260 261 260 260 259 259 258 258 257 256 256 254 253 254 254 256 256 256 258 257 257 257 257 257 256 256 257 257 260 260 260 259 259 259 260 260 260 260 260 260 261 262
278 280 280 281 281 281 281 281 281 280 280 280 280 279 278 277 275 274 274 275 276 271 269 268 266 264 263 263 263 262 263 264 266 265 261 260 259 259 258 258 258 257 257 258 260 260 260 259 259 259 258 258 257 256 256 254 252 253 254 254 256 257 257 258 257 257 258 257 257 258 257 259 260 259 259 258 258 258 258 258 259 260 260 260 260 260 261
276 280 281 281 281 280 280 281 280 279 278 279 279 277 277 275 275 276 275 271 271 270 268 265 263 263 264 264 265 265 262 262 263 263 262 260 259 258 258 257 258 257 258 257 259 259 258 259 259 259 259 259 258 257 257 258 254 253 254 254 254 255 256 255 256 255 255 257 257 257 258 258 256 257 258 257 257 257 258 258 259 259 259 260 260 260 260
278 276 277 277 277 277 277 278 275 274 275 274 275 275 276 276 275 272 273 272 270 268 267 266 266 266 264 262 262 263 263 263 262 261 260 259 258 257 257 257 257 258 258 260 261 259 258 259 258 258 257 256 256 257 258 259 258 254 252 254 254 255 256 255 256 257 256 254 258 256 256 256 256 255 256 256 256 257 258 258 259 259 259 259 259 259 259
274 271 269 270 270 271 272 274 272 271 271 272 273 273 273 272 270 269 269 270 268 267 266 265 263 262 262 262 262 262 261 262 261 260 259 258 258 257 257 258 258 260 261 262 259 258 259 258 258 257 256 255 251 255 257 258 258 254 253 253 254 254 256 256 255 256 256 257 255 255 254 255 256 255 256 256 256 257 258 259 259 259 259 258 258 258 258
267 267 266 267 268 268 269 270 270 269 267 267 267 271 269 267 268 267 268 267 263 264 265 264 263 263 262 262 262 262 262 261 259 258 257 257 257 257 258 259 259 257 258 259 259 259 258 258 257 256 256 254 253 254 255 258 258 255 253 254 254 255 255 256 255 255 255 254 255 259 256 256 256 256 257 256 256 257 256 257 258 258 258 258 257 257 258
264 265 264 264 264 263 264 266 268 267 264 264 263 264 262 262 263 265 267 268 263 262 264 264 264 264 264 263 263 263 259 258 257 257 256 256 255 256 257 257 258 256 257 258 258 258 258 257 257 257 256 255 254 257 254 258 256 253 253 253 254 254 254 254 254 254 254 254 256 254 254 254 255 255 256 255 256 255 256 256 257 257 257 257 257 257 257
262 261 261 261 262 262 262 262 262 264 265 261 260 258 258 259 262 266 265 264 262 261 262 262 263 265 264 261 260 258 257 256 256 255 256 257 257 258 258 260 258 256 257 257 257 257 257 257 257 257 255 255 255 258 258 256 253 252 252 253 254 254 254 254 255 254 254 254 253 253 254 254 254 254 255 255 255 255 255 256 256 256 256 256 256 256 256
259 259 259 260 260 260 258 260 259 260 261 260 258 258 256 256 258 259 259 260 260 260 261 261 260 260 259 259 258 257 256 255 254 254 255 256 257 256 259 260 257 256 257 257 257 257 257 256 256 256 257 256 256 258 258 254 253 252 252 253 254 254 254 253 253 253 253 251 251 251 251 252 252 253 254 253 254 254 255 255 255 255 256 255 255 256 256
255 256 256 257 258 257 257 257 258 257 258 259 256 253 254 254 254 256 258 259 258 259 260 259 259 259 258 258 258 257 255 254 254 254 254 254 257 254 252 256 257 257 256 257 257 257 257 257 256 257 257 257 257 258 256 254 253 253 253 253 252 252 252 252 252 252 251 253 252 251 251 253 252 252 251 253 253 253 254 254 254 254 255 255 255 255 256
254 255 255 254 254 255 255 256 256 257 258 256 254 252 252 252 253 253 254 256 257 257 258 258 259 258 258 258 258 259 257 255 255 255 254 254 255 256 256 256 256 256 256 257 257 257 257 257 257 257 257 257 257 257 255 253 253 253 252 253 252 251 251 251 251 251 252 251 252 252 253 252 252 252 252 253 255 254 254 254 254 254 255 255 255 255 255
253 254 253 255 254 254 255 254 254 253 254 255 255 255 253 252 252 252 252 253 254 256 257 258 258 258 257 257 256 254 253 254 255 257 257 257 259 258 256 256 256 256 256 257 257 257 257 257 257 257 256 257 257 256 254 254 254 254 254 253 252 252 252 252 252 252 251 251 251 251 251 251 250 251 251 252 252 253 254 255 255 255 254 254 254 254 255
253 253 252 251 252 251 251 251 253 253 253 253 255 256 252 251 251 251 251 252 252 252 253 254 254 254 255 257 256 255 254 253 254 257 256 255 256 256 256 256 255 255 255 256 256 256 257 256 256 256 256 256 256 255 254 254 254 254 253 253 253 252 252 252 251 251 250 250 252 253 254 253 252 251 253 254 253 253 253 253 253 253 253 254 254 255 255
251 250 251 250 250 250 250 249 249 250 251 254 255 255 251 250 250 250 250 251 252 252 252 251 252 252 253 254 253 254 256 255 253 254 256 255 256 256 256 255 255 254 255 255 255 256 256 256 256 256 256 256 255 254 254 254 254 253 252 252 252 252 252 252 251 250 250 250 251 249 249 250 250 250 251 252 252 252 252 252 253 253 253 253 253 253 253
249 249 249 249 249 249 249 249 250 252 252 252 252 252 252 251 251 251 251 252 252 252 252 251 251 251 251 252 252 252 251 253 257 256 256 255 256 255 255 254 254 254 254 254 254 254 255 255 255 255 255 255 254 253 254 254 253 253 253 252 252 252 252 251 250 249 249 249 250 250 250 250 250 250 251 251 252 252 252 252 252 252 252 252 253 253 253
249 248 249 250 249 249 249 249 250 251 252 252 251 251 251 251 251 252 252 252 252 252 251 251 251 251 251 251 252 252 253 253 254 256 255 255 255 254 253 253 253 253 254 254 253 254 254 254 254 254 254 253 252 253 253 253 253 253 252 252 252 251 252 252 253 253 251 251 250 250 251 251 250 251 252 252 251 252 252 252 252 253 254 254 253 253 252
249 249 249 250 249 249 248 249 249 250 249 249 250 250 251 251 253 253 252 252 252 252 251 252 252 252 252 252 252 253 252 253 253 254 254 254 253 253 253 253 253 253 253 253 253 253 253 253 252 252 252 252 252 252 252 252 252 252 252 251 251 251 250 251 250 249 249 250 249 250 250 250 250 250 250 250 251 251 251 251 251 251 250 250 251 251 251
247 248 248 248 247 247 247 247 247 248 248 249 249 250 250 251 252 252 253 254 253 252 252 251 251 253 253 252 252 252 253 253 253 253 253 253 252 252 252 252 252 252 252 252 252 252 252 252 251 252 251 251 251 251 252 252 252 251 251 251 251 250 250 250 250 250 249 250 250 250 250 250 249 250 250 250 250 251 251 250 250 250 250 250 250 250 249
Wind_Speed
2 3 6 10 8 8 8 12 13 13 10 7 10 9 13 5 7 11 11 9 9 9 5 8 9 8 9 10 11 7 5 6 7 9 10 10 9 9 9 8 8 9 9 7 7 7 7 7 7 6 6 6 5 5 5 5 4 4 4 6 7 7 7 7 6 4 4 4 4 4 4 3 3 4 4 3 4 4 4 4 4 4 4 4 5 6 6
4 2 3 5 10 6 5 6 8 9 9 11 14 14 15 13 9 11 14 9 11 6 4 8 7 9 9 5 5 5 6 10 10 10 9 9 10 11 11 10 9 8 8 8 8 8 7 7 7 6 6 6 5 6 5 4 5 4 5 6 6 6 7 6 4 4 4 3 4 3 3 3 3 3 3 4 4 4 4 4 4 5 5 5 5 6 7
3 2 4 1 2 6 6 4 5 8 11 12 13 13 15 13 11 13 11 8 10 5 4 2 1 3 5 6 9 11 8 8 9 10 10 10 10 10 8 8 9 9 9 8 8 8 8 7 7 7 6 6 6 6 6 5 5 4 5 5 5 5 6 4 4 4 3 2 2 3 2 2 3 4 5 4 5 5 6 5 6 6 6 6 6 5 5
2 1 4 2 5 4 2 0 3 7 10 10 10 11 10 7 8 10 8 10 13 13 4 2 4 5 8 9 9 8 7 9 11 12 13 12 11 11 11 10 9 10 10 10 10 9 8 8 7 7 7 6 6 6 5 5 4 4 4 4 5 5 4 4 4 3 2 2 3 3 4 4 4 5 5 6 6 6 6 6 6 5 5 5 5 5 5
3 1 3 5 4 2 4 6 9 13 11 10 9 10 9 11 13 10 9 14 16 6 7 7 4 6 7 7 7 6 6 9 14 15 15 15 12 12 11 12 12 11 11 10 10 9 8 8 8 6 7 8 7 6 6 4 4 5 4 4 4 5 4 4 4 3 3 4 4 4 5 4 4 5 5 5 6 6 6 5 4 5 5 6 6 5 5
2 2 4 3 3 8 12 10 10 11 11 12 10 9 13 15 12 10 14 15 10 4 7 8 9 9 8 10 10 12 14 12 11 11 11 12 12 11 9 9 10 9 9 8 8 8 8 8 7 6 7 7 7 5 5 4 5 5 5 4 5 5 5 4 3 3 4 5 5 4 4 4 5 5 5 6 5 4 4 4 4 5 5 5 5 5 5
2 2 3 2 9 13 13 3 5 13 13 8 11 15 15 13 11 12 12 10 9 5 6 8 9 10 8 7 9 7 6 8 11 14 13 12 12 13 11 11 11 11 11 10 10 9 9 9 8 8 8 6 6 5 5 5 4 6 5 6 5 5 5 4 3 3 4 5 5 5 5 5 5 5 5 4 4 5 4 4 5 5 6 6 6 5 6
4 2 4 7 11 7 5 1 4 3 5 9 8 13 15 13 10 10 13 16 14 9 7 6 5 6 5 3 5 8 8 9 10 9 10 12 11 12 14 16 14 14 14 14 13 10 8 9 7 7 8 6 7 6 5 5 5 5 6 6 5 5 4 3 3 4 4 4 4 4 4 4 4 5 4 4 5 4 3 4 4 4 4 4 6 7 6
9 6 8 10 6 10 1 4 6 9 10 7 11 12 16 14 13 13 16 18 15 10 6 3 2 3 3 3 7 6 5 6 8 13 14 14 15 13 9 10 10 9 10 11 10 10 9 8 9 7 6 7 7 6 6 5 6 6 6 6 4 4 3 3 3 3 4 4 4 4 4 4 4 4 4 5 4 3 4 4 5 5 5 5 5 7 8
8 6 3 1 3 12 16 12 1 5 6 6 6 5 14 7 10 13 13 13 11 7 4 5 4 4 4 6 10 7 6 6 7 5 5 6 8 10 11 10 11 11 10 10 9 11 11 9 7 6 6 7 7 7 6 6 6 6 6 5 4 3 2 2 2 3 3 4 3 4 3 4 4 4 4 3 3 4 5 6 7 6 6 7 6 5 7
7 6 7 7 10 14 10 3 7 8 8 8 7 5 14 13 9 8 10 14 11 7 7 5 5 6 6 11 12 6 8 3 3 7 5 8 10 11 14 17 16 13 12 12 11 10 10 10 6 6 7 8 8 7 6 6 6 5 4 3 3 2 2 2 2 3 3 4 4 3 4 4 4 4 4 4 4 4 4 4 5 6 6 7 7 6 5
6 8 9 10 5 9 4 6 4 9 9 11 9 6 11 7 8 11 11 11 10 8 10 11 11 10 10 14 9 2 5 5 4 7 12 12 12 10 11 9 12 13 13 14 11 10 10 8 6 6 6 8 7 8 7 6 6 4 3 3 2 2 2 3 3 3 3 4 3 2 3 3 4 4 4 4 5 5 5 5 6 5 5 6 8 8 6
6 7 5 3 6 4 3 6 5 6 11 13 10 14 8 2 6 9 10 11 13 11 8 10 9 11 5 2 3 4 8 9 7 7 6 8 9 13 12 13 13 12 10 10 11 10 8 7 6 6 8 9 8 7 7 6 4 3 3 3 3 3 3 3 3 3 3 2 1 3 3 3 3 3 3 4 5 5 6 5 5 6 7 8 8 10 9
10 7 7 8 5 7 6 3 4 8 9 6 13 4 0 1 2 1 4 8 5 4 8 7 8 3 4 5 5 6 5 8 7 8 10 12 11 8 9 11 11 11 11 11 11 10 7 7 5 6 8 9 8 7 6 5 4 3 2 2 2 1 0 1 1 1 0 1 2 2 2 2 3 4 4 3 4 5 5 6 8 9 7 8 9 11 11
1 1 3 3 12 3 8 10 1 3 7 4 3 3 1 1 1 3 2 2 1 4 7 6 5 7 5 6 6 6 7 9 10 10 11 13 14 14 13 11 7 12 12 11 10 9 6 6 5 4 8 9 7 6 6 4 4 3 2 1 1 1 1 1 0 1 1 1 1 1 2 3 4 4 4 5 6 5 6 7 8 8 8 8 9 11 12
9 10 10 9 3 5 10 16 10 6 4 1 3 4 3 1 1 3 2 3 2 3 4 5 5 5 9 5 8 8 7 8 8 8 8 9 10 9 6 8 10 10 12 10 10 8 7 6 5 4 7 9 8 7 6 5 4 3 2 1 1 1 1 1 2 1 1 1 1 2 4 4 4 5 7 5 5 6 6 7 7 9 8 8 9 10 12
6 7 8 2 3 7 1 3 2 5 4 2 2 3 3 4 1 0 3 2 2 3 7 7 8 5 3 7 7 11 9 9 10 11 10 10 11 10 11 10 9 9 12 13 11 9 7 8 6 5 4 9 10 8 6 4 2 1 1 2 2 2 2 1 0 0 2 3 4 5 5 6 7 7 6 6 7 6 6 6 6 7 8 7 8 10 11
3 4 2 2 1 1 1 0 1 3 1 1 3 4 4 1 2 3 4 3 4 4 7 9 2 6 8 9 7 7 9 10 8 8 9 8 7 8 9 10 9 9 10 11 11 11 8 7 6 5 5 6 8 7 5 3 1 1 2 2 2 2 1 1 3 4 5 4 5 6 6 6 5 4 5 6 6 6 6 6 5 6 8 8 8 9 10
6 9 5 5 4 3 2 1 1 0 1 1 1 2 2 4 3 3 2 4 4 5 5 7 8 7 9 9 8 8 9 10 10 11 11 10 10 12 12 10 11 11 11 11 10 10 9 6 5 5 5 5 6 5 4 3 1 1 2 2 2 2 4 5 4 5 6 6 6 5 5 4 4 3 5 4 3 4 6 6 6 5 5 7 8 9 11
12 7 1 0 1 0 1 2 1 2 1 1 4 3 4 4 3 3 2 3 2 4 5 6 10 9 9 12 11 10 9 10 10 10 10 11 9 5 6 8 8 9 9 11 11 9 8 7 6 6 6 6 5 4 3 1 0 1 1 1 3 4 4 4 4 5 6 7 6 5 5 6 6 6 4 4 4 5 5 6 7 7 7 7 8 10 11
0 5 1 0 1 0 2 2 2 2 1 3 3 3 3 3 3 2 2 2 1 2 5 6 9 10 8 9 12 11 9 9 9 10 10 8 8 9 9 6 6 8 9 10 10 10 8 7 7 7 7 5 4 3 2 1 0 1 2 3 3 4 4 5 5 5 4 4 4 5 5 4 4 4 6 5 5 4 4 4 3 6 8 8 8 7 8
7 7 4 6 2 2 2 3 4 2 2 5 3 2 2 2 3 3 2 2 3 1 4 7 8 10 9 7 10 11 11 11 11 10 10 9 10 8 5 6 7 7 7 9 10 9 8 7 6 7 7 5 3 2 2 1 2 3 2 2 4 4 4 4 4 4 3 3 4 4 5 5 6 3 5 8 7 5 4 5 10 12 9 8 10 10 11
7 1 2 1 3 5 1 1 3 3 1 3 3 2 2 2 3 4 4 3 1 1 1 4 8 8 11 10 9 10 9 10 9 10 12 13 11 10 8 9 8 8 8 8 9 9 8 7 6 7 6 4 3 3 2 2 2 1 1 3 4 4 4 4 4 2 2 3 3 3 5 4 5 8 8 2 6 9 7 6 8 10 13 16 16 15 12
4 1 3 4 4 4 1 2 1 3 4 3 3 2 3 3 4 4 4 4 4 3 1 1 4 8 8 9 12 11 8 9 11 10 8 7 8 9 8 9 10 11 10 9 9 9 8 7 7 7 6 4 3 3 2 1 2 1 3 3 4 4 4 2 2 2 2 2 2 3 4 5 6 6 8 12 8 1 2 6 7 9 11 13 14 16 19
4 3 2 3 6 4 1 1 2 3 3 3 3 4 3 3 3 3 3 1 1 3 3 2 1 5 9 8 9 12 13 11 10 11 10 10 9 10 9 8 10 10 10 8 7 7 7 8 7 6 6 5 3 2 2 1 2 3 3 5 5 3 2 1 2 3 2 2 3 4 4 5 5 5 7 6 11 15 4 1 6 10 8 9 13 16 19
7 5 4 3 4 2 1 3 7 6 6 4 3 2 5 5 3 4 4 3 2 1 1 2 4 3 8 10 8 7 9 11 11 11 10 11 9 8 9 10 9 7 8 8 8 8 8 8 8 7 6 5 4 3 3 2 3 3 5 5 3 1 1 1 1 2 1 2 3 3 3 3 3 4 3 5 7 6 12 17 9 1 2 6 15 21 23
5 6 6 6 5 4 4 4 1 0 2 4 3 3 3 4 5 4 3 4 2 2 1 1 2 3 4 5 8 7 11 9 7 8 8 8 10 10 8 7 8 8 9 9 8 8 9 8 7 7 6 5 4 4 3 3 4 4 4 3 2 2 1 0 0 1 1 1 1 1 2 2 3 3 4 5 4 6 9 9 11 15 15 11 9 14 18
5 2 1 4 3 2 2 3 4 4 3 2 3 3 2 3 3 2 2 1 2 2 2 2 5 6 7 5 10 8 7 10 13 10 9 10 8 7 8 8 8 8 8 8 8 8 7 7 8 7 6 6 5 4 3 4 5 4 3 2 1 0 1 1 0 0 1 1 1 1 1 2 2 3 4 4 6 6 6 5 9 12 12 12 12 13 19
5 4 3 4 6 6 5 4 4 3 2 2 3 3 4 3 1 1 1 1 1 0 0 0 0 1 5 5 6 9 9 9 10 13 12 9 8 8 8 8 8 7 8 8 7 7 8 8 8 8 6 6 5 4 4 4 4 3 2 1 1 1 1 1 1 0 0 1 1 1 3 2 3 3 3 4 6 4 5 6 8 8 9 12 14 15 11
5 4 6 5 5 6 6 4 4 4 3 3 3 2 2 3 2 4 4 4 4 5 5 3 2 3 4 6 8 12 16 18 15 8 8 9 9 8 9 9 8 5 5 6 8 8 8 8 8 8 7 6 5 4 4 4 3 2 3 2 2 3 2 2 2 2 1 1 1 3 2 1 2 2 3 4 4 4 6 7 7 8 10 10 9 11 13
4 4 5 5 5 3 3 3 2 4 4 3 3 2 1 2 3 4 6 5 4 5 5 7 7 5 6 10 7 4 1 2 4 6 6 8 8 9 9 12 14 14 13 12 10 9 9 8 7 6 6 7 6 5 4 4 3 3 4 4 4 6 7 4 3 2 1 1 1 1 1 2 2 2 5 4 4 5 6 6 6 7 8 8 9 10 11
5 5 4 1 1 1 1 2 2 4 4 4 3 5 7 6 8 10 7 6 9 9 6 5 7 12 11 6 5 5 4 4 5 5 5 5 6 7 7 7 2 2 6 9 9 9 9 7 7 6 7 6 6 5 5 4 4 4 5 5 3 2 2 3 1 1 0 0 1 1 4 1 2 2 3 4 4 5 6 6 7 7 7 8 9 9 10
3 1 2 2 2 2 4 4 4 6 5 6 9 8 6 6 6 6 7 6 4 5 8 10 10 8 7 7 6 6 6 5 4 5 5 7 7 6 6 4 2 4 6 8 8 9 9 8 8 7 6 6 7 5 5 5 4 4 4 3 3 2 2 1 2 1 1 1 2 2 2 2 2 3 4 5 5 6 5 6 7 7 7 8 8 8 9
6 8 8 7 7 8 7 8 6 7 6 6 7 6 6 6 7 8 7 5 5 6 8 11 9 5 5 6 7 7 8 8 6 9 12 11 10 8 7 6 4 4 4 5 6 5 4 5 7 7 7 7 7 6 5 5 4 3 3 2 1 1 0 0 0 0 1 3 4 3 2 4 3 3 5 6 5 5 6 6 7 8 8 8 8 8 11
7 8 6 6 5 6 6 6 6 6 7 6 7 7 8 8 6 8 7 5 7 12 7 4 6 8 8 7 8 10 12 15 16 14 13 11 10 10 10 9 6 5 5 5 5 4 6 6 7 7 8 8 6 5 5 5 4 3 1 2 1 1 1 2 0 1 2 2 2 1 2 3 4 4 5 5 5 6 6 7 6 7 8 9 9 8 9
5 5 5 6 6 6 6 6 6 6 6 7 8 8 7 8 7 6 7 9 8 4 5 7 8 9 9 9 10 12 16 16 12 8 10 11 10 7 8 9 8 8 6 5 5 5 6 6 8 9 6 6 6 5 5 4 3 4 2 2 2 3 3 2 2 1 3 2 2 3 2 4 4 5 5 5 5 5 5 6 6 6 7 8 8 9 9
5 7 7 7 6 6 6 6 5 4 4 5 6 5 6 6 7 9 7 5 4 6 6 8 8 10 14 16 14 10 6 5 4 6 7 8 8 8 8 7 7 10 9 9 10 8 7 7 10 12 7 6 6 5 6 8 4 4 3 5 3 3 2 2 1 2 2 2 2 3 5 5 3 4 6 4 5 5 5 5 7 7 7 7 8 9 10
5 4 5 5 4 5 6 4 3 3 3 7 5 5 5 5 4 4 5 6 5 6 7 9 11 11 7 5 6 10 10 7 6 8 11 12 9 10 8 9 10 8 9 8 8 10 7 10 14 9 6 5 5 6 6 8 6 4 3 4 4 3 3 1 2 4 4 4 5 3 3 4 4 4 5 5 5 5 6 6 6 6 7 7 7 8 8
4 4 3 3 3 4 6 5 3 3 3 5 6 6 3 2 5 4 4 5 5 5 7 8 5 6 8 9 10 9 10 11 9 11 12 11 7 11 9 5 3 2 2 6 13 10 8 9 8 9 7 6 5 7 5 6 7 3 3 3 2 2 2 3 3 6 5 5 3 4 4 4 4 4 5 5 5 5 6 7 6 7 7 7 7 7 8
4 5 5 6 6 6 6 7 5 3 1 1 2 7 4 4 5 5 5 5 3 5 7 6 8 9 9 11 11 12 12 11 9 10 12 11 8 7 3 2 6 5 4 10 8 6 10 13 10 9 6 5 6 6 4 6 6 5 4 3 3 4 4 5 4 4 4 4 4 5 4 4 3 4 5 5 5 5 6 5 6 7 7 7 7 7 8
4 5 5 5 5 4 5 6 8 7 5 5 4 5 4 4 5 4 7 6 4 5 6 8 10 10 11 13 13 9 5 8 9 11 11 10 9 10 14 15 8 9 8 9 7 6 9 8 7 8 6 6 6 6 4 7 5 3 4 4 4 4 3 3 4 4 5 4 5 3 3 3 3 4 5 4 4 4 5 5 6 6 6 7 7 7 7
6 5 6 6 5 5 5 5 6 9 8 5 5 4 4 4 3 7 6 2 3 5 7 8 10 10 7 5 4 5 7 8 10 11 15 17 19 16 13 9 7 8 9 9 8 7 7 7 6 5 7 7 7 8 7 6 5 4 4 5 3 4 3 3 4 4 5 5 3 3 4 3 4 4 4 5 5 5 5 5 6 6 6 6 7 7 7
6 6 6 6 6 6 5 6 5 7 8 8 5 6 5 5 5 5 5 4 4 4 6 6 6 6 4 6 7 8 8 8 10 11 9 7 4 2 4 3 7 8 12 8 7 6 6 6 7 6 6 8 7 10 11 6 6 6 5 6 5 4 4 3 3 4 3 4 4 3 3 3 4 4 5 5 5 5 5 6 6 7 7 7 7 7 8
4 4 4 5 6 5 5 5 6 5 7 7 3 3 4 4 4 5 5 5 5 5 6 7 7 7 7 8 9 9 8 9 10 9 9 7 4 3 4 6 7 9 13 7 7 6 7 6 5 7 10 10 10 11 7 5 6 6 6 6 5 4 4 4 4 3 4 4 4 4 4 5 3 4 4 5 5 5 5 6 6 6 7 7 7 7 7
3 4 4 4 5 5 5 4 5 6 6 5 5 4 3 3 4 4 4 5 5 5 5 6 7 8 8 9 10 10 9 9 11 11 13 12 12 11 7 7 6 6 8 9 6 7 6 6 8 11 8 11 11 10 5 6 6 7 6 6 6 5 4 4 4 4 4 3 3 4 6 4 5 5 5 6 6 6 6 6 7 6 7 7 7 7 8
4 4 4 5 5 5 6 4 5 4 5 6 6 4 2 1 2 3 3 4 5 6 6 6 6 7 8 7 4 4 5 6 7 6 4 1 4 5 8 7 6 5 9 9 5 6 5 10 12 11 10 11 10 7 5 5 6 6 6 6 6 6 5 4 3 4 3 4 4 4 5 6 5 6 5 5 6 6 7 8 8 6 6 6 7 7 8
4 5 5 5 6 5 5 5 4 4 4 5 7 7 2 0 1 2 3 2 2 3 2 3 3 4 5 8 9 9 8 6 5 6 2 0 2 8 10 8 8 9 7 5 4 5 5 7 9 11 11 11 11 6 6 6 6 6 6 6 5 5 5 4 4 4 4 4 5 6 6 6 6 5 6 5 6 6 6 6 7 7 6 8 7 8 8
4 4 6 5 5 5 3 4 4 5 5 7 6 6 2 0 1 1 1 0 0 0 1 1 2 2 4 4 2 3 7 10 10 7 5 5 4 6 6 6 6 7 8 6 6 5 10 9 10 11 12 11 8 6 6 6 6 6 6 5 5 5 5 5 4 4 4 3 3 4 6 6 6 5 5 6 6 6 6 6 7 6 6 6 7 7 8
4 5 7 5 2 5 3 4 4 5 5 5 4 4 0 0 0 0 0 1 2 1 2 1 1 1 2 2 2 3 2 0 3 6 5 6 6 6 6 7 11 9 6 5 4 3 8 10 10 10 11 10 6 6 6 6 6 6 6 5 5 5 5 5 5 4 4 4 5 5 5 5 5 5 6 6 6 6 7 7 7 6 6 6 7 8 7
5 3 3 5 3 2 3 4 5 4 5 4 2 1 1 1 1 4 1 1 1 2 3 2 1 1 2 2 4 3 2 4 4 8 7 7 7 6 6 5 5 7 6 5 5 4 7 10 8 8 7 5 6 6 5 6 6 6 5 5 5 5 5 5 4 5 4 5 5 5 5 5 5 6 7 5 6 6 6 6 6 8 11 9 8 8 7
3 4 4 4 3 3 3 2 2 3 4 3 0 1 1 2 3 1 2 3 2 3 3 3 2 1 1 2 3 3 3 4 5 5 6 6 5 5 5 5 5 5 5 5 5 5 5 5 4 6 5 6 6 5 5 5 5 5 5 5 5 5 5 5 5 3 4 5 5 5 5 5 5 5 6 6 6 7 7 7 7 6 5 6 7 7 7
4 4 5 4 3 3 2 1 2 2 1 0 1 1 2 3 2 2 2 4 4 4 5 5 4 3 3 2 3 2 3 3 2 3 4 5 6 5 5 6 5 5 5 4 5 4 3 4 4 6 6 5 5 5 5 6 5 5 5 6 4 5 5 5 5 4 4 5 5 5 5 5 5 6 6 6 6 7 7 6 6 6 6 6 6 7 7
Wind_Direction
154 89 157 157 175 186 193 200 195 191 183 162 181 216 228 176 175 224 234 215 230 243 193 215 213 194 200 192 198 183 158 138 135 146 157 162 159 158 161 167 160 156 151 144 134 129 127 121 118 116 109 100 90 83 80 75 66 62 72 83 79 75 70 67 59 54 45 41 44 46 34 29 24 23 32 19 9 10 11 9 2 358 354 353 353 353 352
176 119 118 163 167 188 182 188 195 190 177 189 197 215 223 213 217 224 238 226 230 235 207 214 217 202 196 182 140 135 152 165 162 160 159 166 172 171 174 171 164 152 148 145 140 135 134 131 126 118 109 104 99 96 87 70 62 43 64 69 82 79 76 74 65 59 56 46 61 57 40 21 20 15 27 20 21 19 11 6 2 358 359 357 1 354 344
224 147 85 73 147 161 205 208 185 173 181 196 207 217 228 228 240 245 255 273 274 248 194 180 342 122 106 115 152 182 182 152 155 162 172 179 181 182 172 166 161 156 148 142 140 139 138 132 128 122 118 113 103 92 85 76 62 47 67 81 83 89 87 86 83 73 63 50 72 66 49 23 8 21 18 17 22 18 12 4 2 357 353 350 346 338 331
252 178 127 84 56 54 78 330 170 173 174 194 212 216 224 201 220 237 252 263 255 251 149 92 151 130 147 163 176 178 175 167 166 176 186 186 185 183 180 172 158 153 153 151 149 144 136 129 124 125 123 115 104 98 95 90 85 72 80 91 94 88 89 86 82 82 76 67 59 42 32 18 16 13 14 17 17 11 3 356 348 348 345 331 323 319 315
206 329 115 114 88 36 294 241 211 196 198 199 208 222 223 208 205 217 215 234 238 224 155 183 196 173 184 176 177 179 183 184 182 187 190 192 188 184 177 173 166 161 157 155 148 140 135 131 125 126 122 115 113 118 114 123 104 98 100 97 92 81 70 69 61 59 58 55 43 35 23 12 7 10 15 15 11 2 350 332 333 342 328 326 317 313 307
128 5 90 114 111 226 234 226 199 185 199 199 205 216 220 221 192 211 215 230 237 157 197 183 193 196 195 189 203 186 180 185 197 202 196 191 187 181 176 165 154 148 142 142 139 136 130 123 117 112 110 115 120 123 121 109 103 104 99 83 79 75 62 47 37 39 51 52 39 24 11 8 8 8 11 8 353 336 322 326 332 321 317 310 304 302 298
216 115 89 87 221 234 236 224 132 199 213 202 213 233 229 226 218 233 252 256 255 197 196 188 198 201 210 208 191 208 207 179 184 190 191 190 183 178 165 156 159 158 150 137 132 128 128 127 121 113 109 117 117 106 105 101 99 98 89 79 65 62 58 30 14 24 41 47 35 16 6 5 4 4 357 346 340 322 316 314 317 314 311 312 301 295 295
48 79 146 219 236 244 287 342 231 175 182 212 220 250 246 237 221 212 236 244 244 233 223 215 219 204 210 206 228 210 205 182 178 178 191 193 174 170 175 169 165 157 157 153 144 135 128 122 121 119 126 125 112 111 106 100 92 86 84 74 58 52 48 21 11 19 41 46 27 17 2 1 359 351 345 333 321 309 312 306 292 290 291 280 293 299 294
201 170 195 226 348 313 332 235 209 168 203 181 189 233 249 230 223 211 224 235 236 233 228 159 112 101 93 195 260 246 184 174 176 180 196 187 185 173 157 146 142 134 130 129 130 125 122 121 122 125 125 120 118 112 103 94 87 79 76 71 59 53 56 15 7 17 34 45 21 15 2 357 347 342 334 322 312 303 317 311 315 317 311 303 297 302 304
184 173 196 202 239 253 244 227 73 192 206 193 191 202 270 244 217 218 225 238 237 221 169 154 149 117 155 252 253 232 202 203 188 193 160 134 129 128 125 117 119 121 119 115 119 124 121 113 118 124 124 123 117 110 103 95 86 77 75 73 68 52 44 18 11 29 37 44 24 11 4 344 332 320 307 295 299 325 334 327 326 318 311 309 302 295 298
167 186 199 198 214 238 247 183 183 184 181 166 119 181 252 250 208 217 213 227 229 198 164 188 146 120 201 234 237 215 187 176 118 106 102 119 127 134 140 141 136 133 131 128 125 116 115 115 117 118 120 115 111 106 100 97 92 91 86 73 60 38 17 11 27 29 35 40 24 11 347 318 315 309 308 313 315 324 322 312 303 301 307 308 304 297 281
192 186 202 218 207 252 243 183 199 178 153 121 116 199 252 261 134 205 204 208 217 193 186 165 174 174 217 233 246 160 151 134 127 136 139 131 127 120 114 111 122 124 125 121 118 118 117 119 118 112 113 112 109 108 104 101 101 98 88 71 45 26 21 25 29 25 16 47 1 339 300 299 297 296 300 322 327 330 322 310 307 312 307 308 309 311 311
203 183 237 273 265 268 180 186 167 140 143 131 160 213 233 243 197 199 184 192 209 196 173 168 184 217 210 198 138 126 117 103 83 74 83 103 117 125 124 124 123 120 120 119 119 116 113 110 105 110 114 113 113 111 109 105 102 86 63 45 35 26 16 21 30 26 14 26 319 292 279 281 298 312 325 330 328 332 327 323 324 328 333 327 321 317 318
204 202 209 236 279 232 163 2 155 148 108 207 205 227 231 150 123 4 164 202 211 136 161 182 211 173 127 120 98 105 103 111 112 108 110 105 92 87 105 119 122 119 114 110 103 91 83 87 86 105 118 116 116 113 108 105 99 75 56 47 25 355 353 53 54 348 306 283 264 254 278 317 345 343 330 338 334 329 330 338 340 338 336 333 329 322 320
221 158 212 239 248 250 120 115 73 262 173 228 182 161 354 74 65 102 56 110 49 134 184 192 151 116 112 120 121 105 114 118 124 127 125 126 130 134 132 121 123 126 121 116 107 104 90 78 74 87 118 118 115 109 112 117 103 108 103 62 337 266 150 148 212 222 240 249 272 287 348 354 2 354 348 358 352 350 353 349 343 340 340 336 330 324 319
185 191 204 216 204 112 164 144 190 190 198 188 167 128 113 319 67 88 70 57 102 98 142 132 118 123 118 104 115 107 102 112 112 112 116 118 121 117 108 118 129 125 115 113 108 96 91 80 70 69 116 123 121 122 129 129 129 106 62 316 260 229 196 204 207 214 233 289 357 16 6 5 11 7 0 358 358 352 358 349 342 337 338 337 330 326 323
187 200 220 224 196 163 156 28 350 161 136 117 169 121 139 144 241 204 106 121 95 133 129 130 137 130 154 146 151 138 146 136 139 138 142 141 137 135 133 132 128 127 128 125 115 101 90 84 73 73 91 122 127 124 130 115 115 112 223 243 217 194 194 205 208 182 11 23 28 16 11 14 11 360 354 357 355 355 356 344 342 335 329 335 330 320 317
255 263 167 151 65 209 274 52 56 104 110 113 108 111 103 15 176 172 147 163 148 121 132 119 135 144 148 137 136 133 138 138 132 125 121 118 118 119 123 126 131 127 119 116 116 113 95 86 88 83 83 106 116 126 111 108 129 184 237 221 187 172 176 49 24 27 28 26 28 16 12 14 11 349 342 342 344 335 339 332 337 334 326 329 324 319 313
160 236 185 147 178 230 192 80 326 7 147 153 113 108 115 150 119 91 82 144 160 163 146 147 148 147 151 140 141 144 142 146 146 146 143 143 147 148 144 141 134 132 130 125 124 122 116 113 109 106 105 92 94 106 110 119 144 233 233 172 146 83 45 36 21 30 32 20 13 5 1 357 352 340 332 327 328 328 325 325 324 323 320 323 322 319 317
199 238 65 189 348 102 178 135 147 266 287 61 45 71 91 98 82 102 139 118 124 141 147 155 146 156 159 149 155 155 158 154 152 149 148 145 134 120 119 129 131 127 131 133 132 123 123 131 129 126 106 102 104 104 105 124 228 224 142 101 75 48 42 49 35 41 30 15 6 352 348 348 343 337 333 324 320 314 314 314 321 322 323 323 322 319 316
231 48 29 314 42 9 291 266 284 4 44 111 58 65 83 90 97 82 54 61 190 161 175 148 141 149 175 164 157 152 148 149 153 154 148 143 136 135 137 135 139 142 140 132 132 128 124 131 136 125 117 114 108 114 120 109 130 106 80 55 56 54 54 50 42 35 18 1 347 343 333 336 321 302 307 309 300 277 255 237 246 300 314 311 307 302 300
224 210 199 159 137 229 262 0 343 333 136 113 124 104 81 90 105 116 95 26 10 92 164 156 156 156 161 161 156 158 160 160 155 148 145 141 140 134 125 117 121 120 123 131 132 131 130 138 138 127 124 120 118 110 101 81 68 78 79 81 74 61 62 42 41 20 357 346 338 342 336 331 328 312 305 311 300 298 288 292 311 311 309 309 313 316 312
210 44 4 59 113 90 187 264 303 1 27 112 129 149 171 171 166 154 134 125 75 64 92 156 156 161 161 165 153 151 158 163 158 154 151 151 153 150 146 132 130 132 132 131 129 131 140 145 137 126 127 126 114 100 78 72 78 101 114 95 89 72 61 37 18 7 352 333 325 337 338 345 341 336 328 330 306 292 300 319 326 319 315 313 315 318 320
68 73 80 71 100 128 200 240 315 0 1 67 90 105 128 152 159 151 145 167 162 184 203 181 170 163 158 161 159 154 145 144 146 149 148 145 146 146 150 151 148 143 145 148 149 146 145 143 131 129 126 117 104 95 101 123 136 91 75 99 90 60 48 17 8 358 329 322 341 6 1 5 355 346 341 329 339 214 256 340 325 322 322 330 335 338 335
176 183 150 115 121 140 176 86 33 26 18 57 90 64 59 90 86 111 123 66 98 157 165 191 164 156 156 162 160 160 158 158 156 152 150 148 150 158 156 148 157 157 154 148 140 141 142 139 134 135 129 125 123 130 138 123 101 90 78 77 74 49 24 33 21 336 334 0 15 15 6 356 352 349 343 353 337 331 334 135 325 328 350 355 345 335 329
119 128 107 88 85 90 110 66 31 20 9 20 50 50 29 51 67 74 50 49 38 40 162 171 165 170 156 156 154 141 139 155 153 146 149 158 156 156 166 167 158 145 141 142 146 146 143 140 141 139 139 139 142 143 110 91 93 97 79 73 76 93 50 11 356 322 349 18 26 12 353 348 335 339 345 338 331 326 328 333 350 111 140 350 340 335 330
99 134 104 68 61 44 32 106 187 228 30 40 84 77 47 52 67 83 77 51 56 19 78 157 145 137 122 139 137 146 151 139 134 158 163 164 173 173 158 146 152 148 144 145 145 145 146 145 144 145 146 150 146 135 121 115 96 81 75 73 62 359 332 317 223 261 347 31 25 354 335 336 331 343 334 331 333 335 334 333 326 325 328 328 332 334 327
117 130 128 131 149 171 171 149 136 131 95 103 116 97 72 63 60 60 47 35 17 14 28 74 130 139 143 146 142 128 119 153 170 171 170 181 166 148 155 151 143 143 143 144 144 145 146 148 150 149 155 150 139 133 119 104 91 80 84 79 72 291 274 178 87 34 21 51 325 312 295 301 310 324 321 325 333 327 323 310 314 317 316 319 319 322 320
140 121 85 110 141 148 143 138 119 118 112 83 89 114 120 95 83 112 202 196 169 97 138 3 19 142 148 158 150 158 168 169 177 187 184 161 148 149 145 140 135 138 144 146 144 147 151 154 157 154 156 144 137 124 111 98 96 105 98 95 159 226 193 144 141 214 232 267 266 266 295 312 316 315 312 320 322 317 308 307 310 305 305 314 320 320 320
169 145 112 119 137 145 139 170 186 176 171 169 140 146 165 146 172 215 206 196 171 192 204 162 163 182 147 167 183 176 183 192 192 168 147 152 149 148 147 139 123 116 133 154 164 161 161 162 161 158 154 144 136 124 107 105 118 125 139 191 200 209 204 201 194 219 235 249 255 316 323 303 307 308 318 318 315 303 306 307 304 307 311 312 314 317 322
92 102 116 129 125 141 173 216 180 179 171 171 169 154 169 173 216 236 226 198 184 209 200 190 193 177 186 199 196 185 103 99 129 150 146 148 155 161 162 164 162 175 183 181 170 165 162 159 159 158 144 136 134 122 120 130 159 169 176 196 204 212 208 217 196 188 192 218 293 301 304 306 302 320 317 313 305 302 298 294 295 298 298 304 310 316 317
105 86 95 88 100 140 253 242 232 228 197 172 160 210 211 195 220 233 231 202 215 203 191 185 193 205 204 180 157 148 126 114 118 128 143 142 164 181 180 192 212 123 149 153 160 163 163 157 159 157 128 131 130 137 141 170 179 171 197 180 169 206 207 187 164 292 89 261 291 302 285 291 306 314 310 303 294 292 291 290 294 296 298 307 312 312 315
139 209 293 257 274 281 267 257 214 245 219 201 218 228 227 218 233 242 234 217 193 184 192 208 211 206 183 164 152 146 138 125 118 129 154 179 188 183 180 173 152 152 153 164 164 166 167 158 155 134 131 136 139 153 162 168 181 177 199 165 168 188 180 224 197 185 358 277 264 262 264 279 296 306 287 279 281 284 284 287 292 296 302 304 303 305 307
191 215 218 205 191 221 237 250 215 229 245 230 233 233 232 232 227 238 242 220 202 202 207 215 204 172 142 151 160 154 140 137 166 196 199 192 185 176 175 167 148 135 134 141 149 155 152 135 135 136 146 147 158 161 168 163 182 179 175 140 171 170 200 162 338 111 199 248 257 262 274 289 292 281 274 279 281 281 285 291 296 300 305 302 300 305 307
202 225 226 228 218 226 225 227 223 212 222 236 243 234 231 232 226 232 232 204 213 224 212 153 145 153 159 161 165 174 180 195 204 198 192 181 178 175 164 144 134 131 138 160 167 168 154 146 139 140 144 148 159 163 159 163 164 156 165 155 163 196 202 222 222 201 217 241 260 269 284 280 273 271 275 280 276 277 286 289 296 303 304 306 306 308 309
198 235 258 256 244 236 237 237 233 227 222 230 236 240 234 227 223 230 222 223 225 179 145 158 152 151 165 175 184 191 202 212 209 189 176 178 170 141 145 158 161 157 161 183 200 170 138 142 147 153 151 157 158 167 159 154 160 161 194 176 190 202 206 212 202 222 236 235 234 252 246 252 257 266 270 269 274 284 285 290 295 298 301 303 306 310 312
203 211 234 245 251 244 248 250 253 258 253 249 259 262 261 247 226 231 234 243 201 179 164 144 149 169 196 202 202 204 218 221 205 184 175 149 141 154 169 162 172 178 170 192 197 154 150 155 159 161 160 157 158 160 164 161 169 181 194 194 201 201 210 200 207 217 235 234 224 239 245 252 262 266 270 271 281 279 286 290 296 299 299 300 305 308 311
227 211 246 269 306 319 300 307 18 30 349 317 286 269 267 284 282 252 238 229 207 178 169 175 189 200 192 171 187 204 206 195 181 167 164 166 170 158 177 180 186 169 196 202 146 142 163 156 160 158 159 155 159 152 163 164 180 175 181 190 202 197 174 173 206 232 221 234 229 229 235 244 253 265 268 271 272 275 283 287 293 296 296 298 299 302 305
343 29 24 357 348 330 322 320 358 7 14 309 297 297 304 313 292 280 248 236 201 162 165 189 174 163 184 185 205 209 203 199 183 169 170 159 163 180 204 213 265 178 26 88 132 146 151 147 145 129 156 154 146 139 149 169 183 182 201 214 192 169 180 206 214 221 224 228 225 234 234 242 243 248 259 264 265 276 281 287 292 294 295 295 298 299 304
7 20 9 2 357 348 349 327 328 330 350 355 289 286 322 344 307 290 268 256 205 170 179 169 171 193 201 205 207 214 211 188 176 167 166 164 161 186 219 228 189 184 159 142 139 134 139 145 144 147 155 156 141 149 165 178 187 187 201 210 202 196 205 211 215 225 237 228 234 242 240 239 245 254 266 271 279 280 285 289 290 290 291 292 292 295 301
6 356 348 359 327 334 325 314 309 311 316 313 302 296 336 325 296 282 258 251 206 177 187 182 190 212 210 208 212 208 158 165 167 171 157 141 166 193 189 207 161 139 159 133 125 127 140 142 147 146 156 150 151 163 167 180 174 186 200 207 196 200 207 213 219 225 226 235 239 237 241 242 263 273 273 280 278 280 281 283 284 286 288 291 293 295 295
335 345 338 335 326 322 313 311 315 314 308 329 325 328 321 313 278 259 278 269 192 184 197 209 211 217 219 198 170 147 159 169 166 172 175 183 188 161 179 211 139 141 147 134 133 133 135 144 146 152 150 153 159 172 167 166 168 182 196 199 200 204 204 217 226 228 237 234 237 241 251 256 256 263 271 276 280 281 281 283 284 285 285 287 290 293 296
334 337 323 319 312 318 314 313 305 296 301 307 309 304 308 312 303 292 293 272 215 204 207 216 217 221 185 161 161 167 176 167 172 180 193 230 256 283 218 124 121 146 146 134 140 135 147 142 138 151 152 149 164 174 174 166 175 186 190 192 199 195 212 214 223 231 235 238 247 243 244 252 253 261 268 270 271 278 280 280 281 284 288 289 291 292 293
306 303 297 297 298 300 310 304 296 299 294 301 342 327 316 306 296 283 276 263 248 227 213 213 205 203 191 175 171 182 181 176 177 181 173 203 266 239 230 160 138 138 146 145 148 148 153 151 147 164 166 168 174 177 171 173 186 184 189 182 188 195 200 212 228 229 234 243 241 246 250 259 262 261 262 271 276 278 276 276 276 278 284 286 286 287 290
300 292 300 297 293 303 301 294 295 288 286 297 312 308 307 298 291 288 268 258 247 241 226 219 210 204 194 189 196 201 189 182 179 163 165 185 200 213 162 153 137 135 148 146 142 146 148 144 154 158 165 176 185 185 181 185 188 187 181 182 186 193 203 212 218 226 233 239 249 253 252 255 253 258 259 265 267 273 276 279 278 278 282 286 290 292 294
321 316 312 317 314 297 290 297 291 301 311 311 304 290 261 279 291 292 284 254 250 247 230 224 214 207 192 186 163 119 115 142 175 206 229 277 102 116 123 146 148 141 141 139 132 137 141 148 149 155 172 183 188 186 185 193 197 189 185 184 188 191 203 213 222 231 231 237 243 249 252 257 261 259 257 258 261 265 270 273 280 282 281 283 286 286 287
326 322 317 298 284 287 297 298 299 312 317 322 308 304 332 8 322 311 304 291 248 251 241 217 201 195 179 181 171 160 152 149 182 202 122 187 123 123 126 121 116 130 130 134 141 140 139 145 157 170 180 188 190 186 186 195 192 189 185 187 189 200 206 214 221 221 232 240 247 248 249 248 248 255 263 267 268 269 273 278 279 280 282 287 288 290 291
309 295 290 289 280 283 301 310 315 303 291 273 272 300 321 42 345 344 349 41 73 71 63 65 102 135 158 155 141 154 170 163 166 204 153 124 126 117 134 131 129 130 127 127 124 141 147 152 165 177 183 189 190 191 192 191 186 186 188 189 196 202 212 219 223 228 232 237 242 247 257 261 263 262 264 262 267 267 269 271 275 280 283 285 287 290 289
288 276 274 269 274 282 289 289 286 283 277 274 273 271 182 145 329 23 22 116 121 78 56 43 81 94 73 65 74 65 51 266 164 142 134 131 141 134 118 121 129 129 123 126 142 133 162 168 173 182 190 197 200 200 195 192 189 187 187 192 197 202 207 211 217 213 225 234 241 244 250 256 261 258 264 265 268 269 272 271 272 272 280 284 285 286 289
300 296 309 288 266 266 262 266 273 270 293 293 255 213 148 174 270 268 170 186 172 101 88 64 50 51 72 54 39 30 31 77 99 110 115 122 117 109 118 121 126 132 132 133 137 146 171 177 181 187 198 207 218 211 204 194 188 189 187 192 197 204 208 214 222 225 221 233 239 244 250 252 256 259 261 264 268 270 267 268 270 275 282 286 288 291 291
322 321 300 315 328 308 292 265 251 292 303 308 305 135 178 212 239 219 143 190 168 144 147 122 106 113 67 64 60 69 65 63 67 78 108 115 109 111 114 122 125 130 134 135 151 164 160 157 163 190 200 211 214 212 204 198 192 191 194 197 201 204 207 218 215 224 236 239 239 243 247 254 255 263 261 264 266 270 267 271 274 278 280 280 282 284 284
270 267 268 272 277 276 273 306 323 325 313 271 202 197 203 225 211 174 187 197 179 185 175 150 152 154 122 104 113 111 93 102 99 94 99 115 125 127 129 126 126 137 140 151 163 160 133 158 179 196 206 210 208 210 206 200 197 200 198 200 201 205 209 208 212 227 233 236 241 251 254 253 253 260 263 264 264 265 269 269 272 276 278 280 280 281 284